User: anonymous   Login
Location: Foulognes
(49.1413°N, 0.8183°W)
Time: 23:51:37
(UTC+00:00)
Language:

Cosmos 1459 Rocket - Orbit

View from above orbital plane
View from above orbital plane
View from above satellite
View from above satellite

Ground track
Ground track

The orbit data is extracted from the following two-line orbital elements,

1 14059U 83042B   19348.60472502 +.00000006 +00000-0 -92740-5 0  9991
2 14059 082.9717 106.1438 0041832 228.4969 131.2597 13.78672716840936
Epoch (UTC): 14 December 2019 14:30:48
Eccentricity: 0.0041832
inclination: 82.9717°
perigee height: 938 km
apogee height: 999 km
right ascension of ascending node: 106.1438°
argument of perigee: 228.4969°
revolutions per day: 13.78672716
mean anomaly at epoch: 131.2597°
orbit number at epoch: 84093

The dashed part of the orbit path shows where the satellite is in the earth's shadow,  

DLR